Regional Weather Roundup
Issued by NWS Pendleton, OR

Home | Current Version | Previous Version | Text Only | Print | Product List | Glossary On
Versions: 1 2 3 4 5 6 7 8 9 10 11 12 13 14 15 16 17 18 19 20 21 22 23 24 25 26 27 28 29 30 31 32 33 34 35 36 37 38 39 40 41 42 43 44 45 46 47 48 49 50
000
ASUS46 KPDT 260225
RWRPDT
PENDLETON REGIONAL WEATHER ROUNDUP
NATIONAL WEATHER SERVICE PENDLETON OREGON
700 PM PDT MON SEP 25 2017

NOTE: FAIR INDICATES FEW OR NO CLOUDS BELOW 12,000 FEET WITH NO
SIGNIFICANT WEATHER AND/OR OBSTRUCTIONS TO VISIBILITY.

# INDICATES UNOFFICIAL STATION AND DATA

WAZ520-260310-
EAST SLOPES OF WASHINGTON CASCADES

CITY            SKY/WX      TMP DP  RH  WIND    PRES   REMARKS
#BULLFROG       N/A         59  49  69  W6      N/A
#CLE ELUM HS    N/A         58  48  69  W6      30.03R
#CLE ELUM LAKE  N/A         55  48  77  CALM    30.03R
#EASTON DOT     N/A         54  49  83  CALM    N/A
#ELK HTS DOT    N/A         58  58  100 W3      N/A
#GLENWOOD       N/A         58  51  77  S2      30.03S
#NELSON 3SW     N/A         55  48  77  CALM    30.25R
#NILE           N/A         59  48  67  W1      29.32R
#TEANAWAY 4NE   N/A         57  49  75  W1      N/A
#TROUT LAKE 1NE N/A         59  50  72  CALM    30.06R
#TROUT LAKE 1E  N/A         60  51  72  CALM    30.11R
$$

WAZ521-260310-
SIMCOE HIGHLANDS

CITY            SKY/WX      TMP DP  RH  WIND    PRES   REMARKS
#BICKLETON HS   N/A         60  50  69  W2      30.03S
#CENTERVILLE 1SWN/A         60  50  69  W12     30.00R
#GOLDENDALE 1NE N/A         63  37  38  SW1     N/A
#GOLDENDALE 4W  N/A         62  25  24  W9      30.09S
#GOODNOE HILLS  N/A         65  51  60  W9      N/A
#PITT 4SE       N/A         56  50  80  W7      30.06S
$$

WAZ026-260310-
KITTITAS VALLEY

CITY            SKY/WX      TMP DP  RH  WIND    PRES   REMARKS
ELLENSBURG AP   PTCLDY      61  48  62  NW14    30.06R
#ELLENSBURG CWU N/A         61  49  65  N6      29.96R
#ELLENSBURG 3NE N/A         58  48  69  N5      28.13R
#ELLENSBURG 1E  N/A         61  49  65  CALM    30.06R
#KITTITAS 3S    N/A         62  50  65  NW7     30.00R
#MANASTASH RDG  N/A         59  58  96  NW8     N/A
#ROCKY CYN DOT  N/A         60  47  62  W9      N/A
#RYEGRASS DOT   N/A         58  44  60  SW17G24 N/A
$$

WAZ027-260310-
YAKIMA VALLEY

CITY            SKY/WX      TMP DP  RH  WIND    PRES   REMARKS
SUNNYSIDE AP    CLOUDY      62  57  84  CALM    30.02R HAZE
YAKIMA AIRPORT  CLOUDY      71  50  47  N7      30.03R
YAKIMA-VAGABOND MOCLDY      66  47  50  E6      30.02R
#DONALD 2NE     N/A         68  22  17  W1      30.03R
#GRANDVIEW      N/A         66  51  58  CALM    30.02R
#MABTON         N/A         69  51  53  CALM    30.00S
#MOXEE 2E       N/A         67  N/A N/A NE9     29.94R
#NACHES 2SW     N/A         63  51  65  W6      30.05F
#OUTLOOK DOT    N/A         67  53  61  CALM    29.98S
#PARKER DOT     N/A         70  45  41  S1      30.01S
#TERRACE HTS    N/A         66  50  56  CALM    29.97R
#TOPPENISH      N/A         68  52  57  CALM    29.92R
#I82 S UMTANUM RN/A         63  45  52  N9      N/A
#UNION GAP DOT  N/A         66  49  54  CALM    30.05R
#W YAKIMA       N/A         64  50  60  NW2     30.00R
#WHITE SWAN 5E  N/A         68  53  59  CALM    30.00S
#WILEY CITY 3W  N/A         64  46  52  CALM    30.01R
#ZILLAH DOT     N/A         66  54  65  NE2     N/A
$$

WAZ028-260310-
LOWER COLUMBIA BASIN...WASHINGTON

CITY            SKY/WX      TMP DP  RH  WIND    PRES   REMARKS
PASCO           MOCLDY      71  47  42  SE5     30.01S
PROSSER AWOS    N/A         70  48  46  CALM    30.05R
RICHLAND AWOS   MOCLDY      69  52  55  CALM    30.01S
#BENTON CITY    N/A         66  54  65  CALM    29.91R
#CONNELL 5N     N/A         65  48  54  CALM    30.01R
#CONNELL 5NW    N/A         64  50  60  CALM    29.96R
#ELTOPIA 6NW    N/A         67  55  65  CALM    28.99S
#KAHLOTUS       N/A         66  47  50  CALM    30.00R
#KENNEWICK 3S   N/A         67  51  56  SE1     30.00S
#PATERSON       N/A         67  52  59  CALM    29.98S
#PROSSER DOT    N/A         69  46  44  CALM    30.02S
#SAGEMOOR 2W    N/A         67  54  63  CALM    29.86S
#TOUCHET 2S     N/A         67  54  63  CALM    29.98S
#WEST PASCO     N/A         68  51  55  CALM    29.98F
$$

WAZ029-260310-
FOOTHILLS OF THE BLUES...WASHINGTON

CITY            SKY/WX      TMP DP  RH  WIND    PRES   REMARKS
WALLA WALLA AP  CLOUDY      69  50  51  CALM    30.04R
#CLYDE 6NW      N/A         64  49  58  SW1     29.99R
#DAYTON SCHOOL  N/A         65  44  46  CALM    30.05R
#LOWDEN 2SE     N/A         67  53  61  CALM    29.98S
#PLEASANT VIEW 1N/A         62  47  58  S1      30.03S
#PRESCOTT       N/A         64  53  67  CALM    30.00S
#WHITMAN COLLEGEN/A         66  52  61  CALM    30.05R
#WAITSBURG 6SSE N/A         61  48  62  E1      30.04R
#WALLA WALLA 5E N/A         64  50  60  E1      N/A
#WHITMAN MISSIONN/A         69  54  59  CALM    30.01S
$$

WAZ030-260310-
BLUE MOUNTAINS...WASHINGTON

CITY            SKY/WX      TMP DP  RH  WIND    PRES   REMARKS
#DIXIE 5SE      N/A         58  45  62  SW2     30.01S
$$

ORZ009-041-WAZ024-260310-
COLUMBIA RIVER GORGE

CITY            SKY/WX      TMP DP  RH  WIND    PRES   REMARKS
THE DALLES AP   CLOUDY      69  50  51  NW17    30.03F
#ARLINGTON AIRPON/A         67  50  54  W13     30.00S
#CELILO DOT     N/A         69  48  47  SW8     N/A
#LYLE           N/A         67  54  63  W12     30.04F
#MARYHILL       N/A         65  50  58  N22     N/A
#MURDOCK        N/A         67  53  61  NW12G24 29.99S
#RUFUS DOT      N/A         71  N/A N/A W15     N/A
#SMITHVILLE     N/A         67  53  61  N9      29.98R

$$

ORZ510-260310-
NORTH CENTRAL OREGON

CITY            SKY/WX      TMP DP  RH  WIND    PRES   REMARKS
#ANTELOPE       N/A         60  49  67  NE2     29.91R
#CHENOWITH 1W   N/A         59  49  69  W24G31  N/A
#COW CYN RST AREN/A         60  45  58  W8      N/A
#DUFUR          N/A         62  50  65  NE1     30.00S
#DUFUR 9E       N/A         57  48  72  CALM    30.08R
#GRASS VALLEY 1SN/A         59  49  69  N3      30.09S
#KENT DOT       N/A         59  40  49  N8      N/A
#MAUPIN SCHOOL  N/A         67  51  56  N5      30.07S
#MORO SCHOOL    N/A         60  53  78  W9      30.06S
#SHANIKO 4NW    N/A         56  47  72  NW8     30.10F
#TYGH VALLEY 2NEN/A         64  51  63  N8      30.01S
#WAPANITIA AIRPON/A         62  49  62  W7      30.04R
#WASCO DOT      N/A         65  46  50  W7      N/A
#WASCO 5NE      N/A         62  50  65  W10     30.00F
$$

ORZ511-260310-
CENTRAL OREGON

CITY            SKY/WX      TMP DP  RH  WIND    PRES   REMARKS
BEND AIRPORT    MOCLDY      61  45  56  NW10    30.11R
MADRAS AIRPORT  CLOUDY      61  61  100 NW9     30.09S
PRINEVILLE AP   CLOUDY      63  43  48  N8      30.09S
REDMOND AIRPORT CLOUDY      63  42  46  NW14    30.09R
#ASHWOOD SCHOOL N/A         63  46  54  CALM    30.03S
#BEND 1SW       N/A         58  45  62  CALM    N/A
#BEND-AWBREY    N/A         59  46  62  CALM    30.03R
#BEND-KIM LN    N/A         59  47  64  N3      29.98S
#CULVER 8W      N/A         63  46  54  CALM    30.08S
#LAKE BILLY CHINN/A         62  N/A N/A S2      30.13R
#MADRAS 4S      N/A         62  15  16  NE9     N/A
#POWELL BUTTE   N/A         61  47  60  W5      30.04R
#PRINEVILLE     N/A         65  44  46  CALM    30.11S
#PRINEVILLE 3N  N/A         62  47  58  N7      30.03R
#WARM SPRINGS   N/A         65  50  58  CALM    29.90R

$$


ORZ509-260310-
EAST SLOPES OF OREGON CASCADES

CITY            SKY/WX      TMP DP  RH  WIND    PRES   REMARKS
SISTERS AWOS    N/A         59  46  62  W12     N/A
#BLUE BOX PASS  N/A         50  N/A N/A CALM    N/A
#CAMP SHERMAN   N/A         56  45  66  CALM    30.15R
#LA PINE 4NW    N/A         55  44  66  CALM    30.14S
#LAVA BUTTE DOT N/A         56  36  47  CALM    N/A
#SISTERS ODOT   N/A         59  45  60  W6      N/A
#SISTERS 3N     N/A         57  44  62  NW3     30.09S
#SUNRIVER       N/A         58  45  62  CALM    30.09S
#TUMALO 3W      N/A         58  45  62  N7      29.90R
#WANOGA BUTTE D N/A         50  41  71  N1      N/A

$$

ORZ044-260310-
LOWER COLUMBIA BASIN...OREGON

CITY            SKY/WX      TMP DP  RH  WIND    PRES   REMARKS
HERMISTON       CLOUDY      68  51  55  E5      30.01S
#BOARDMAN SCHOOLN/A         70  50  49  CALM    29.98S
#BOARDMAN 8SW   N/A         70  53  55  W5      30.01R
#ECHO 8SW       N/A         68  51  55  CALM    30.02S
#I-84 EX 198 DOTN/A         66  48  52  E2      N/A
#IONE SCHOOL    N/A         67  47  49  W10     30.02R
#UMATILLA       N/A         69  50  51  CALM    29.93R
$$

ORZ507-260310-
NORTHERN FOOTHILLS OF THE BLUES

CITY            SKY/WX      TMP DP  RH  WIND    PRES   REMARKS
PENDLETON AIRPT MOCLDY      66  46  48  CALM    30.04S
#ADAMS 3WNW     N/A         64  47  54  CALM    30.01R
#ATHENA         N/A         63  49  60  CALM    30.03S
#CAYUSE         N/A         65  47  52  CALM    30.00R
#HELIX SCHOOL   N/A         64  47  54  CALM    30.02S
#HELIX 3N       N/A         63  46  54  CALM    30.02S
#HOLDMAN 5SE    N/A         65  49  56  CALM    30.03R
#HOLDMAN 6E     N/A         64  47  54  CALM    29.82S
#M-F GROVE ELEM N/A         67  47  49  CALM    30.01S
#M-FREEWATER 5SEN/A         62  53  72  CALM    30.03S
#PENDLETON DNTN N/A         66  45  47  CALM    30.01S
#PDT SUNRIDGE   N/A         65  49  56  CALM    30.05R
#PENDLETON 7NW  N/A         67  50  54  CALM    N/A
#PILOT ROCK     N/A         63  46  54  CALM    30.07R
#TUTUILLA       N/A         64  50  60  CALM    30.07S
#UMAPINE 2E     N/A         65  56  73  CALM    30.00R
#WESTON SCHOOL  N/A         63  48  58  CALM    29.97R

$$

ORZ508-260310-
SOUTHERN FOOTHILLS OF THE BLUES

CITY            SKY/WX      TMP DP  RH  WIND    PRES   REMARKS
LEXINGTON       MOCLDY      66  46  48  W10     30.08R
#AJAX           N/A         60  42  51  W10     30.22R
#FOSSIL SCHOOL  N/A         63  44  50  N5      30.01R
#HEPPNER EOC    N/A         64  46  52  CALM    29.95S
#HEPPNER 4NE    N/A         61  46  58  SW1     30.01S
#LEXINGTON 2SE  N/A         68  49  51  NW3     30.00R
#MIKKALO        N/A         63  45  52  W8      30.15S
#OLEX 4N        N/A         65  48  54  SW13    30.01S
#RUGGS 5NE      N/A         60  43  53  CALM    30.27S
#RUGGS 2SW      N/A         60  44  55  CALM    30.03S

$$

ORZ502-503-260310-
BLUE MOUNTAINS

CITY            SKY/WX      TMP DP  RH  WIND    PRES   REMARKS
MEACHAM         CLOUDY      56  43  62  CALM    30.11R
#BATTLE MTN DOT N/A         55  39  55  N1      N/A
#GRANITE        N/A         52  32  46  CALM    30.04S
#GREENHORN 9SW  N/A         57  40  53  CALM    26.27S
#HEPPNER 15SE   N/A         54  44  69  CALM    30.01S
#LADD CYN SMT   N/A         57  40  53  NW6     N/A
#LADD CREEK ODOTN/A         54  48  80  CALM    N/A
#LONG CREEK HS  N/A         60  42  51  N6      30.09S
#N POWDER DOT   N/A         58  45  62  NW3     N/A
#PIKES PEAK     N/A         57  43  59  CALM    27.99S
#SUMMERVILLE 5NWN/A         57  45  64  NW3     28.03R
#TOLLGATE       N/A         49  44  83  CALM    29.98S
#TROY SCHOOL    N/A         64  52  65  CALM    29.87R
#UKIAH          N/A         59  44  57  N1      29.97R
#WESTON 4E      N/A         59  45  60  CALM    29.99S
$$

ORZ505-260310-
JOHN DAY BASIN

CITY            SKY/WX      TMP DP  RH  WIND    PRES   REMARKS
JOHN DAY        CLOUDY      63  36  36  CALM    30.09R
#JOHN DAY KJDY  N/A         64  N/A N/A CALM    29.55R
#ANTELOPE 9ESE  N/A         69  46  44  CALM    N/A
#DAYVILLE SCHOOLN/A         68  36  31  CALM    30.01S
#MITCHELL       N/A         65  45  48  CALM    30.22S
#MITCHELL 8NW   N/A         62  40  44  CALM    30.05S
#MONUMENT HS    N/A         69  41  36  E3      29.99R
#MT. VERNON 5SE N/A         61  38  42  CALM    30.04S
#WINLOCK        N/A         60  44  55  CALM    30.03S
$$

ORZ506-260310-
OCHOCO AND JOHN DAY HIGHLANDS

CITY            SKY/WX      TMP DP  RH  WIND    PRES   REMARKS
#HORSE RIDGE DO N/A         60  39  46  NW8     N/A
#IZEE 6NW       N/A         60  37  42  NE2     N/A
#PAULINA ODOT   N/A         65  35  33  N6      N/A
#PINE MTN OBS   N/A         49  40  71  NW2     N/A
#SENECA         N/A         58  N/A N/A CALM    N/A
#SENECA 9NW     N/A         56  37  49  CALM    30.06S
$$

ORZ049-260310-
GRANDE RONDE VALLEY

CITY            SKY/WX      TMP DP  RH  WIND    PRES   REMARKS
LA GRANDE       MOCLDY      63  42  46  W9      30.08R
#COVE           N/A         62  50  65  CALM    30.09S
#COVE SCHOOL    N/A         63  48  58  CALM    30.08R
#COVE 6NW       N/A         62  46  56  N7      30.04R
#ELGIN 3N       N/A         60  40  47  CALM    30.48R
#ELGIN 1E       N/A         62  43  50  CALM    N/A
#IMBLER SCHOOL  N/A         59  44  57  CALM    30.03R
#ISLAND CITY 4N N/A         64  58  81  CALM    30.10S
#UNION 1S       N/A         61  45  56  CALM    30.03R
$$

ORZ050-260310-
WALLOWA COUNTY

CITY            SKY/WX      TMP DP  RH  WIND    PRES   REMARKS
JOSEPH AIRPORT  LGT DRIZZLE 54  43  66  CALM    30.13R
#ENTERPRISE HS  N/A         53  46  77  CALM    29.95R
#IMNAHA SCHOOL  N/A         61  48  62  CALM    30.05R
#JOSEPH         N/A         53  48  83  CALM    30.31R
#JOSEPH 3N      N/A         53  43  69  CALM    30.13R
#JOSEPH 3W      N/A         48  47  96  CALM    30.48R
#LOSTINE        N/A         54  47  77  CALM    29.87R
#LOSTINE 3SE    N/A         53  47  80  SW1     30.15R
#MT HOWARD 8000 N/A         37  35  92  N3      30.21S
#PROMISE 1S     N/A         51  47  86  CALM    30.16R
#WALLOWA LAKE   N/A         52  47  83  CALM    30.16R
#WALLOWA SCHOOL N/A         58  47  67  CALM    30.04R



$$



USA.gov is the U.S. government's official web portal to all federal, state and local government web resources and services.